Wetbulb
41.23 42.08 42.85 44.46 46.93 49.67 52.45 55.55 57.70 58.22 58.33 57.51 58.28 58.46 58.23 56.87 55.47 53.51 49.55 47.36 44.93 42.95 42.85 41.60 40.66 41.43 40.63 41.03 41.43 41.85 41.90 42.09 35.61 33.01 33.45 33.24 31.17 30.91 31.11 31.59 31.07 30.08 32.31
40.01 40.26 41.49 43.64 46.40 48.75 51.01 55.03 56.47 56.05 55.04 54.06 52.25 51.09 50.53 50.40 48.97 47.06 44.66 43.26 41.44 40.02 39.59 38.94 38.12 38.39 37.02 37.07 37.02 36.01 36.14 37.15 35.99 32.13 32.18 31.80 29.90 29.87 29.56 28.83 27.97 29.15 31.10
38.19 38.72 40.29 42.11 43.21 44.85 48.79 50.49 55.68 53.82 51.04 49.75 48.57 46.86 45.90 45.22 43.64 42.67 41.66 40.45 39.48 38.67 38.04 36.90 36.02 36.03 34.46 33.98 33.40 32.60 32.50 32.81 33.70 32.33 29.26 30.66 30.20 28.64 28.43 28.21 27.31 27.72 28.56
36.68 37.44 38.42 39.61 40.46 42.49 46.64 49.12 49.14 51.60 49.88 48.57 47.56 46.39 45.80 44.59 42.93 41.31 39.57 37.26 36.01 35.31 35.20 34.98 34.26 33.49 32.53 32.16 31.33 31.00 31.44 30.81 30.95 29.97 28.27 26.63 27.39 27.49 27.14 25.17 25.05 25.54 26.12
34.66 36.02 36.88 37.29 38.34 39.73 40.24 40.74 40.11 40.38 39.87 40.14 44.49 43.64 41.44 40.72 39.54 37.40 35.92 34.66 33.67 32.55 32.43 32.25 32.16 31.57 32.59 32.44 31.28 30.79 30.78 29.74 28.63 27.81 26.02 25.50 24.80 24.22 22.78 23.55 22.98 23.64 24.41
33.14 34.84 35.28 35.28 35.50 35.82 36.01 36.53 36.18 35.60 35.25 34.96 34.15 35.15 34.97 35.46 36.50 35.56 33.76 31.93 31.28 30.45 29.77 30.47 31.42 31.70 32.65 33.12 32.85 32.59 31.67 28.69 26.50 26.08 25.40 23.89 22.61 22.42 22.46 21.34 20.71 19.92 19.99
33.45 34.06 33.43 33.13 32.63 32.85 33.90 33.91 33.87 34.56 34.78 33.77 32.99 32.27 31.83 32.67 34.63 33.91 32.68 31.07 30.45 30.19 29.97 29.89 30.12 29.97 30.20 29.78 30.37 30.14 29.67 30.31 29.38 26.99 24.52 23.23 21.05 20.64 21.25 19.73 18.69 18.13 17.92
32.52 32.40 32.14 31.88 31.69 32.17 32.52 32.59 33.12 33.74 33.84 33.86 32.95 32.28 31.67 32.22 33.70 32.78 31.54 30.00 29.21 29.19 29.25 29.27 28.80 27.36 26.89 26.13 24.89 24.30 24.38 24.73 24.36 24.16 22.68 21.32 20.84 20.59 20.85 19.48 17.68 17.03 18.53
31.24 31.33 31.19 31.22 31.09 31.27 31.36 31.65 32.42 32.74 32.60 32.23 32.37 31.87 31.33 31.45 33.07 32.38 30.54 28.63 27.60 27.17 27.60 27.67 28.43 27.49 28.30 27.49 24.15 24.24 24.78 23.98 27.26 27.35 26.18 24.80 23.54 22.17 20.20 18.15 14.83 13.88 13.04
30.16 30.37 30.83 30.89 30.67 30.30 30.89 31.07 31.60 31.78 31.23 31.34 30.96 31.38 31.29 31.28 33.34 32.43 30.11 28.26 26.47 26.29 27.04 27.11 28.39 28.77 28.98 27.51 23.16 21.81 21.60 20.99 20.44 19.08 18.21 18.11 17.75 18.23 17.63 15.77 14.89 12.17 11.03
29.31 29.14 29.10 29.54 29.61 30.04 30.22 30.73 30.76 30.40 30.28 29.91 29.57 30.17 30.72 31.43 31.81 32.65 31.42 28.21 26.57 26.22 25.85 26.28 28.10 29.69 29.03 27.03 24.51 21.76 20.26 21.46 19.92 16.88 15.38 14.69 14.25 13.92 13.68 13.62 13.37 12.74 10.90
27.52 27.17 27.39 28.12 29.05 29.27 28.82 28.96 29.34 29.27 28.39 27.84 27.77 27.96 29.10 30.28 31.69 32.00 31.28 29.53 29.29 26.53 25.58 26.59 27.38 27.96 26.80 25.76 23.98 24.37 22.77 18.53 16.01 14.34 13.07 11.89 11.45 10.96 11.41 11.55 11.22 11.92 12.91
26.66 26.41 26.77 26.98 27.84 28.67 28.55 28.92 27.92 28.37 27.66 27.09 26.85 26.72 27.51 29.31 30.38 32.07 31.61 30.17 28.74 26.02 26.19 27.60 28.09 26.73 25.82 23.45 22.25 20.08 16.33 14.74 13.36 12.08 10.69 9.68 10.08 10.59 10.42 10.01 9.69 9.75 10.09
26.92 26.73 27.06 26.50 26.68 27.14 27.61 27.78 27.70 27.02 26.58 26.31 26.23 26.12 26.70 27.68 28.24 29.10 29.02 26.99 27.15 26.55 28.24 24.76 23.72 21.88 21.13 18.50 16.32 15.22 14.26 13.86 12.65 11.17 9.68 9.44 9.70 8.87 7.80 8.47 7.06 6.89 5.95
26.10 26.09 25.99 25.79 25.76 25.48 25.99 26.73 26.46 27.62 28.82 27.69 27.35 26.61 25.89 25.39 26.66 28.11 25.83 24.35 24.94 23.98 21.09 19.01 16.97 15.19 12.99 12.05 11.70 11.32 11.19 11.07 9.51 9.17 8.18 7.76 7.51 7.39 6.71 6.73 5.39 3.69 4.16
24.94 24.72 25.10 25.28 24.69 24.35 24.95 25.75 30.88 30.70 30.47 30.06 29.27 27.02 26.35 28.43 30.05 28.62 27.41 27.15 27.19 23.59 15.90 15.31 13.74 13.25 12.12 10.77 9.45 8.32 8.54 7.92 7.47 6.93 6.22 6.23 5.51 5.25 4.81 4.42 4.18 2.23 2.10
24.22 22.52 22.76 22.25 21.91 22.09 21.89 23.39 23.74 24.88 29.82 30.14 29.59 29.21 29.26 29.65 29.78 28.56 27.93 27.78 26.35 19.87 13.07 13.58 13.09 12.52 11.39 10.25 9.07 8.08 6.70 6.78 6.38 6.20 5.27 4.53 3.97 3.37 2.70 1.92 1.76 0.81 1.01
16.01 17.92 19.43 19.83 20.16 19.24 17.16 15.35 15.94 17.35 17.48 16.49 27.08 27.01 29.28 30.17 29.76 28.55 28.12 26.82 17.00 12.35 10.49 11.20 11.23 11.08 10.19 8.64 7.39 6.03 5.15 3.70 3.35 3.40 2.57 1.96 0.99 1.69 0.54 -0.11 -0.68 -2.86 -1.96
11.19 10.46 11.38 11.15 10.98 11.84 11.97 11.89 12.01 12.28 12.53 18.70 16.02 23.52 22.46 30.18 29.97 29.24 28.19 17.68 12.51 9.27 6.98 8.28 8.63 7.84 6.92 6.21 4.98 4.10 2.97 2.76 2.58 1.00 -0.15 -1.09 -1.77 -1.01 -2.33 -2.69 -2.01 -5.62 -5.07
5.64 8.99 9.15 10.08 8.60 9.46 9.39 10.64 9.42 8.88 10.78 18.99 12.95 16.54 15.32 24.01 26.03 24.26 13.97 13.02 12.00 10.32 8.31 6.81 5.12 4.92 4.29 3.71 2.60 2.15 1.57 0.22 -0.37 -0.69 -1.18 -1.64 -3.12 -4.04 -2.81 -4.62 -4.89 -4.13 -5.25
9.97 8.38 8.66 8.00 9.69 10.16 10.61 11.34 11.62 10.83 12.45 13.24 15.37 12.59 21.75 24.12 19.99 16.79 14.09 13.26 11.22 7.59 5.80 4.88 3.98 2.53 1.43 1.02 0.36 0.21 0.32 0.98 -0.41 -2.71 -3.32 -4.61 -7.35 -4.75 -5.96 -5.13 -6.08 -8.49 -8.35
11.32 9.90 8.61 10.46 9.13 8.63 8.98 9.54 9.21 9.56 9.29 10.49 10.04 11.41 27.60 16.92 18.18 15.18 13.45 12.46 11.33 8.22 5.67 3.85 1.43 0.99 0.21 0.08 0.30 -0.57 -1.62 -2.43 -3.61 -3.97 -4.83 -8.03 -8.54 -7.67 -9.22 -7.94 -8.26 -7.80 -8.29
13.82 10.52 8.38 5.19 8.32 6.02 7.12 6.95 7.72 8.38 7.79 8.57 9.04 11.21 11.83 18.43 15.59 14.41 12.61 8.22 4.09 -0.10 -0.02 1.30 -0.66 -3.11 -1.35 -0.10 1.18 0.43 -1.63 -2.81 -3.08 -5.41 -6.43 -7.57 -8.94 -8.01 -9.48 -7.87 -8.22 -9.32 -8.33
16.24 14.23 12.70 10.52 7.21 7.66 7.90 6.61 6.67 6.97 8.33 8.43 8.03 10.06 11.75 11.89 13.99 10.41 5.96 0.10 -1.40 -2.14 -2.23 -1.30 -0.41 -1.11 -1.59 -1.73 -2.56 -3.19 -3.97 -7.26 -8.28 -7.82 -8.39 -7.73 -7.12 -9.92 -9.74 -10.79 -9.89 -9.60 -8.63
14.39 14.61 13.87 11.49 9.12 8.57 5.20 4.45 5.74 6.72 7.29 7.81 7.53 7.79 6.94 6.85 4.47 1.49 -1.28 -1.76 -2.26 -2.87 -4.35 -2.62 -0.99 -0.64 -1.33 -3.19 -4.94 -6.85 -9.44 -2.62 -10.66 -12.98 -12.63 -10.72 -9.86 -12.24 -12.10 -10.94 -9.14 -7.58 -7.48
16.42 15.06 14.16 11.03 8.83 6.35 6.85 6.87 6.08 4.37 4.93 5.63 6.58 5.17 3.05 1.54 0.38 -0.29 -1.52 -1.71 -3.16 -3.66 -3.41 -2.17 -2.46 -2.46 -3.16 -4.66 -5.86 -5.22 -8.02 -2.53 -5.58 -7.10 -9.90 -9.96 -10.03 -9.56 -10.03 -9.27 -7.00 -6.88 -4.96
MSLP
1010.32 1009.69 1009.37 1008.63 1007.65 1007.34 1006.48 1005.40 1004.38 1004.69 1004.68 1005.40 1006.00 1006.06 1006.48 1007.04 1007.58 1008.52 1009.49 1010.24 1011.28 1012.39 1013.50 1014.21 1015.13 1015.56 1015.96 1016.45 1016.05 1016.32 1017.66 1017.50 1019.71 1022.02 1023.69 1024.29 1024.98 1025.40 1025.50 1025.60 1025.46 1025.63 1025.80
1010.06 1009.52 1008.92 1008.31 1007.51 1006.26 1005.65 1004.97 1004.52 1004.51 1004.42 1005.59 1005.71 1006.10 1006.15 1006.86 1007.63 1008.29 1009.12 1010.18 1011.23 1012.48 1013.60 1014.08 1015.72 1015.83 1016.57 1017.35 1017.19 1017.87 1018.90 1019.05 1019.29 1022.16 1024.13 1024.67 1024.89 1025.57 1025.42 1025.24 1025.51 1026.12 1026.02
1009.94 1009.29 1008.35 1008.00 1007.30 1006.64 1005.47 1004.78 1004.27 1003.97 1004.63 1005.02 1005.88 1006.44 1006.77 1006.95 1008.15 1008.84 1009.98 1010.64 1011.65 1012.74 1014.16 1014.46 1015.96 1016.83 1016.88 1017.67 1018.78 1019.04 1019.84 1019.70 1020.43 1022.21 1024.23 1024.52 1025.19 1025.51 1025.53 1025.49 1025.94 1026.43 1026.43
1009.73 1009.33 1008.67 1007.69 1007.14 1005.89 1005.10 1005.05 1003.84 1003.65 1004.43 1005.38 1005.73 1006.44 1006.71 1007.62 1008.32 1008.80 1010.22 1010.79 1012.41 1013.94 1014.82 1015.47 1016.54 1017.14 1017.65 1018.71 1019.24 1020.02 1020.05 1020.55 1021.35 1022.77 1024.01 1024.40 1024.74 1025.39 1025.47 1025.96 1026.08 1026.39 1026.74
1009.68 1009.41 1008.85 1008.26 1007.45 1006.60 1005.77 1005.77 1005.85 1005.70 1005.64 1006.10 1006.00 1006.82 1007.27 1008.09 1009.22 1010.10 1010.68 1011.62 1012.99 1014.26 1015.71 1016.86 1017.31 1017.99 1019.14 1019.39 1020.22 1020.48 1020.45 1021.17 1022.18 1023.15 1023.85 1024.98 1025.41 1025.77 1026.00 1026.52 1026.42 1026.28 1026.72
1009.75 1009.28 1009.05 1008.64 1008.26 1007.29 1007.02 1006.82 1006.72 1006.45 1007.06 1007.16 1006.87 1008.86 1008.14 1009.11 1010.44 1011.09 1011.32 1012.45 1014.00 1015.19 1016.46 1017.78 1018.61 1019.28 1019.93 1020.42 1020.62 1020.84 1021.00 1021.47 1022.49 1023.41 1024.48 1025.05 1025.75 1026.06 1026.39 1026.57 1026.56 1026.48 1026.56
1009.84 1009.47 1009.09 1008.92 1008.80 1008.42 1007.30 1007.48 1007.79 1007.50 1007.88 1008.06 1009.27 1010.09 1010.16 1011.21 1011.23 1012.02 1012.72 1013.97 1015.56 1016.31 1017.13 1018.11 1019.03 1020.29 1020.82 1020.92 1021.58 1021.82 1022.07 1022.32 1022.49 1023.59 1024.92 1025.68 1026.18 1026.59 1026.60 1026.86 1027.25 1027.70 1027.89
1009.91 1009.60 1009.50 1009.46 1009.02 1009.21 1007.73 1008.27 1008.46 1008.38 1008.68 1009.70 1009.14 1010.80 1011.92 1012.14 1012.45 1013.16 1014.51 1015.49 1016.60 1018.20 1018.91 1019.10 1019.54 1020.64 1021.43 1021.77 1022.11 1022.68 1023.38 1023.95 1024.32 1024.79 1025.80 1026.27 1026.61 1027.12 1027.12 1027.39 1028.01 1028.19 1028.46
1010.42 1010.06 1009.76 1009.73 1009.61 1009.47 1008.95 1009.09 1009.20 1009.79 1009.71 1009.74 1010.45 1010.83 1011.25 1013.49 1013.53 1014.54 1015.15 1016.46 1017.73 1018.90 1020.00 1020.45 1020.65 1021.04 1021.86 1022.36 1022.65 1023.02 1023.88 1024.85 1025.39 1025.77 1026.05 1026.81 1027.16 1027.44 1027.77 1027.95 1028.16 1028.09 1028.38
1010.83 1010.58 1010.24 1010.19 1010.39 1010.06 1010.17 1009.88 1009.89 1010.32 1010.35 1010.63 1011.49 1012.46 1012.73 1013.44 1014.70 1015.18 1015.93 1016.91 1017.92 1019.02 1020.18 1021.12 1021.58 1021.76 1022.46 1022.82 1023.04 1023.79 1024.39 1025.40 1025.99 1026.70 1027.34 1027.90 1028.36 1028.50 1028.50 1028.62 1028.75 1028.95 1029.09
1011.36 1011.29 1010.97 1010.88 1010.96 1010.87 1011.07 1011.11 1010.63 1011.24 1011.58 1012.14 1012.59 1013.34 1013.71 1014.36 1015.05 1016.02 1016.91 1017.48 1018.30 1019.48 1020.09 1021.14 1021.86 1022.32 1022.72 1023.31 1023.63 1023.90 1024.67 1025.47 1026.47 1027.15 1027.95 1028.57 1029.06 1029.18 1029.31 1029.48 1029.57 1029.19 1029.27
1011.96 1011.94 1012.05 1011.82 1011.77 1011.83 1011.84 1012.10 1011.95 1012.18 1012.74 1013.42 1013.76 1014.18 1014.94 1015.85 1016.44 1017.16 1017.64 1018.02 1018.60 1019.43 1020.68 1021.33 1022.27 1022.95 1023.38 1023.63 1024.15 1024.63 1025.35 1026.38 1027.19 1028.03 1028.70 1029.18 1029.41 1029.67 1029.79 1030.03 1030.10 1030.07 1030.17
1012.64 1012.83 1012.87 1012.83 1013.07 1013.10 1012.92 1013.18 1013.21 1013.64 1013.89 1014.48 1014.75 1015.41 1016.25 1016.83 1017.46 1018.00 1018.50 1018.99 1019.62 1020.43 1021.28 1021.70 1022.59 1023.35 1024.24 1024.72 1025.21 1025.88 1026.70 1027.38 1028.09 1028.72 1029.22 1029.63 1029.84 1030.25 1030.55 1030.34 1030.42 1030.41 1030.56
1013.33 1013.38 1013.59 1013.99 1014.30 1014.37 1014.38 1014.38 1014.66 1015.03 1015.30 1015.70 1015.81 1016.45 1016.87 1017.42 1017.93 1018.42 1019.25 1020.14 1020.74 1021.09 1021.87 1022.78 1023.36 1024.42 1025.13 1025.88 1026.33 1027.03 1027.46 1027.93 1028.53 1029.03 1029.54 1029.73 1030.13 1030.41 1030.59 1030.71 1030.99 1030.95 1030.94
1014.31 1014.22 1014.18 1014.84 1015.40 1015.66 1015.91 1016.13 1016.12 1016.27 1016.52 1016.48 1016.66 1017.26 1017.79 1018.46 1019.11 1019.27 1019.80 1020.55 1021.31 1021.79 1022.34 1023.62 1024.38 1025.16 1025.94 1026.68 1027.48 1027.75 1028.24 1028.73 1029.17 1029.50 1029.81 1030.17 1030.64 1030.83 1031.07 1031.43 1031.37 1031.45 1031.15
1015.13 1015.32 1015.40 1015.55 1016.02 1016.48 1016.72 1016.74 1016.75 1016.80 1016.98 1017.18 1017.53 1017.83 1018.29 1019.22 1019.73 1019.83 1020.03 1020.59 1021.22 1021.84 1023.14 1024.02 1024.74 1025.41 1026.18 1027.03 1027.65 1028.35 1028.72 1029.15 1029.51 1029.68 1030.05 1030.52 1030.88 1031.47 1031.68 1031.60 1031.95 1031.75 1031.07
1015.93 1016.09 1016.18 1016.42 1016.78 1016.90 1016.97 1016.98 1017.18 1017.48 1017.45 1017.58 1017.82 1018.11 1018.46 1018.77 1019.40 1019.69 1020.10 1020.94 1021.81 1022.40 1023.22 1023.83 1024.44 1025.48 1026.44 1027.06 1027.86 1028.21 1028.86 1029.24 1029.54 1029.88 1030.34 1031.05 1031.63 1031.67 1031.74 1031.80 1031.99 1031.73 1031.42
1016.56 1016.67 1016.87 1017.07 1017.18 1017.38 1017.57 1017.71 1017.94 1018.19 1018.41 1018.49 1018.25 1018.40 1018.80 1019.15 1019.61 1020.01 1020.38 1021.25 1022.70 1023.32 1023.62 1024.36 1024.96 1025.75 1026.43 1027.16 1027.96 1028.51 1028.93 1029.33 1029.93 1030.51 1030.98 1031.37 1031.51 1031.39 1031.52 1031.74 1031.99 1032.11 1032.03
1016.92 1017.03 1017.08 1017.29 1017.55 1017.76 1018.15 1018.46 1018.52 1018.66 1018.94 1019.04 1019.03 1018.87 1019.26 1019.81 1020.14 1020.60 1021.01 1021.83 1022.73 1023.48 1024.14 1024.85 1025.34 1025.99 1026.59 1027.26 1027.87 1028.34 1028.84 1029.61 1030.16 1030.68 1031.11 1031.19 1031.23 1031.33 1031.74 1032.12 1032.33 1032.59 1032.64
1016.78 1016.82 1016.99 1017.21 1017.57 1017.94 1018.31 1018.65 1018.95 1019.08 1019.19 1019.26 1019.44 1019.72 1019.83 1020.08 1020.31 1020.70 1021.56 1022.21 1022.94 1023.71 1024.39 1024.86 1025.38 1025.88 1026.64 1027.35 1027.98 1028.62 1029.30 1030.05 1030.44 1030.72 1031.10 1031.16 1031.42 1031.91 1032.32 1032.68 1032.74 1032.71 1032.61
1016.21 1016.78 1017.29 1017.52 1017.68 1018.00 1018.37 1018.75 1019.03 1019.36 1019.56 1019.76 1019.86 1019.75 1019.50 1019.67 1020.02 1020.58 1021.31 1021.97 1022.60 1023.31 1023.88 1024.44 1025.26 1026.02 1026.75 1027.46 1028.23 1028.91 1029.38 1029.80 1030.28 1030.63 1030.93 1031.46 1031.86 1032.25 1032.45 1032.59 1032.63 1032.73 1032.58
1015.54 1016.11 1016.72 1016.96 1017.29 1017.92 1018.25 1018.56 1018.96 1019.27 1019.63 1019.99 1020.16 1020.07 1019.53 1020.07 1020.18 1020.79 1021.48 1022.07 1022.60 1023.09 1023.86 1024.65 1025.45 1026.10 1026.89 1027.38 1027.97 1028.57 1029.21 1029.80 1030.22 1030.72 1031.22 1031.64 1031.96 1032.19 1032.42 1032.52 1032.44 1032.31 1032.17
1014.58 1015.32 1015.98 1016.44 1016.85 1017.37 1017.90 1018.23 1018.53 1018.80 1019.06 1019.26 1019.49 1019.65 1019.78 1019.65 1020.06 1020.58 1021.24 1022.06 1022.99 1023.89 1024.41 1024.85 1025.65 1026.55 1026.93 1027.33 1027.68 1028.20 1028.84 1029.34 1029.93 1030.63 1031.12 1031.55 1031.87 1032.19 1032.33 1032.22 1032.15 1032.11 1031.58
1013.78 1014.44 1015.17 1015.86 1016.47 1016.91 1017.36 1017.74 1017.89 1017.97 1018.14 1018.38 1018.64 1018.79 1018.88 1019.26 1019.75 1020.53 1021.40 1022.42 1023.52 1024.11 1024.49 1024.92 1025.46 1026.11 1026.84 1027.34 1027.87 1028.42 1028.90 1029.49 1029.96 1030.37 1030.97 1031.38 1031.44 1031.74 1031.86 1031.82 1031.66 1031.42 1031.01
1013.36 1013.88 1014.42 1014.99 1015.64 1016.09 1016.46 1016.71 1017.03 1017.42 1017.74 1018.03 1018.37 1018.81 1019.21 1019.56 1020.17 1020.96 1021.71 1022.53 1023.30 1023.96 1024.63 1025.16 1025.68 1026.15 1026.77 1027.48 1028.08 1028.48 1028.83 1029.03 1029.63 1030.12 1030.62 1030.88 1031.00 1031.26 1031.20 1031.12 1030.87 1030.54 1030.08
1012.72 1013.24 1013.75 1014.31 1014.79 1015.26 1015.66 1016.08 1016.45 1016.98 1017.39 1017.75 1018.16 1018.64 1019.10 1019.67 1020.38 1021.13 1021.83 1022.55 1023.23 1023.90 1024.37 1024.92 1025.64 1026.27 1026.95 1027.49 1027.89 1028.35 1028.70 1028.84 1029.13 1029.40 1029.81 1030.23 1030.46 1030.27 1030.35 1030.18 1029.81 1029.62 1029.08
Wind_Speed
9 6 8 10 8 10 11 10 7 8 9 9 12 15 14 12 11 10 9 11 12 11 9 10 9 7 5 5 7 7 7 7 8 4 2 7 4 4 4 4 5 6 3
11 8 8 8 9 8 10 10 8 8 5 6 5 3 5 6 6 11 14 13 14 13 12 14 10 8 10 6 6 8 5 4 5 9 4 3 4 3 4 6 6 4 4
8 12 9 7 8 7 7 8 11 8 7 7 9 9 9 11 13 13 12 13 14 13 12 12 10 9 10 8 7 6 4 5 6 6 4 2 3 2 3 4 5 5 5
5 8 12 9 9 8 7 7 5 2 8 10 9 8 10 10 12 14 15 17 17 12 12 12 10 9 10 8 7 6 7 8 9 8 5 3 2 3 4 3 3 3 4
5 5 8 10 9 6 7 7 6 8 8 9 8 8 11 10 7 14 15 15 18 16 13 11 11 12 12 10 6 7 8 8 6 6 6 3 3 3 4 3 2 3 4
5 6 6 6 8 5 4 5 6 10 11 13 15 8 15 11 21 23 19 17 17 17 16 14 13 14 16 19 19 17 11 8 8 4 4 5 5 3 3 3 3 3 2
8 6 6 5 5 4 5 6 6 10 13 18 15 15 15 16 29 27 26 16 14 13 15 13 12 9 12 14 20 22 19 19 14 7 8 5 5 3 2 4 5 3 3
5 5 4 4 3 5 7 7 7 8 12 12 20 17 14 16 30 30 26 17 14 12 10 11 12 12 10 12 13 13 13 12 11 9 10 9 8 5 6 4 3 2 4
5 5 4 4 3 4 5 7 8 10 11 14 12 18 21 16 28 26 22 15 14 13 10 8 10 11 15 16 13 13 13 12 15 19 19 17 15 13 7 3 3 2 2
5 4 3 4 4 5 4 7 8 9 12 12 16 13 19 19 23 25 18 12 14 11 10 10 11 10 15 14 10 11 11 10 11 11 9 10 9 10 12 8 4 3 3
5 5 6 6 6 6 6 5 10 10 12 13 14 11 13 13 17 23 22 10 11 8 8 8 6 14 14 13 11 8 10 10 11 8 7 5 5 6 6 6 6 5 3
7 8 8 8 6 6 8 7 9 11 11 11 12 11 9 10 16 19 18 17 16 11 9 8 9 17 17 17 13 18 17 12 6 6 5 4 5 5 5 5 6 5 4
9 10 10 11 9 7 8 8 8 8 8 8 8 9 8 7 7 17 19 19 18 10 8 14 20 19 19 16 18 17 10 6 6 5 5 5 5 4 4 3 5 4 4
9 10 10 10 9 9 7 7 7 7 7 6 8 7 7 6 6 7 8 9 17 12 17 10 14 14 15 13 8 8 6 5 5 5 5 5 4 3 3 3 2 2 1
7 8 8 8 7 7 6 4 5 5 4 3 6 6 7 6 4 10 12 9 8 11 12 7 7 6 6 6 5 6 5 5 5 5 5 5 4 3 3 2 2 2 1
6 4 4 5 5 4 4 5 10 10 10 12 11 8 5 10 18 18 18 18 21 19 5 6 5 5 5 5 5 5 4 5 5 5 5 4 3 2 2 1 0 1 2
4 3 3 3 2 3 3 4 6 5 8 12 14 15 14 16 16 16 18 20 19 11 3 4 5 6 5 5 5 4 4 4 5 5 5 4 4 3 3 1 2 2 3
2 4 3 3 3 3 3 3 3 3 3 1 6 7 11 15 16 17 19 18 6 3 2 4 4 5 5 5 5 4 5 5 4 4 4 3 3 2 2 2 2 2 3
4 3 4 3 3 4 4 3 3 3 2 3 2 4 2 15 15 16 16 3 4 3 2 3 3 5 5 5 5 5 6 5 4 5 4 3 3 2 2 1 1 2 2
3 5 4 4 3 4 3 4 3 3 2 3 3 3 2 5 7 5 2 4 4 4 4 5 4 5 5 6 6 6 5 5 4 3 3 2 2 1 1 1 1 2 2
4 4 5 3 4 4 4 5 4 4 4 4 4 3 10 7 5 6 5 5 5 5 5 5 6 6 5 5 5 5 5 5 4 3 3 2 2 2 2 2 3 3 3
6 6 5 6 4 5 5 4 4 4 4 4 4 3 15 2 4 5 5 5 4 4 4 6 6 6 6 7 6 6 5 5 4 3 3 2 2 2 2 2 3 2 3
6 6 5 3 4 4 4 4 5 5 5 5 5 5 4 5 5 5 5 5 4 4 4 5 6 5 4 5 5 5 6 5 4 4 4 3 3 3 3 2 2 3 4
7 7 7 6 5 5 5 6 6 8 7 7 7 6 6 4 6 6 5 5 5 4 4 5 5 8 6 5 4 3 3 3 3 4 5 3 3 3 2 3 4 5 5
5 6 6 6 5 5 4 4 4 4 4 4 5 4 3 4 4 5 5 6 6 6 6 5 4 7 7 7 6 6 6 6 5 5 4 4 4 5 4 4 4 4 5
5 5 5 4 4 4 4 4 4 4 4 4 4 3 4 5 5 6 6 7 6 6 7 5 6 8 8 6 7 6 6 7 7 9 5 4 4 5 4 6 7 4 7
Wind_Direction
282 277 273 283 284 279 289 257 225 205 184 191 223 207 205 197 177 169 154 140 127 119 113 109 96 91 80 75 79 93 75 93 117 77 77 143 93 92 78 83 70 59 32
295 289 278 281 289 286 283 271 214 221 169 186 147 104 133 135 138 146 138 134 126 123 120 113 115 110 91 61 76 61 70 57 88 122 136 151 94 88 85 79 56 72 64
302 304 300 297 300 291 288 297 255 185 155 138 142 145 135 121 117 110 103 106 109 111 117 113 110 109 102 94 87 97 95 81 84 120 132 100 102 71 88 70 63 70 70
295 304 308 317 314 321 324 288 11 136 162 166 151 152 143 136 129 121 125 121 104 97 98 93 104 94 103 108 101 105 101 88 92 104 107 111 111 89 82 47 63 52 60
296 303 310 315 313 326 8 20 23 55 67 67 67 136 96 102 109 124 115 106 111 102 91 87 85 89 92 101 118 99 99 100 95 101 100 86 55 54 52 23 8 3 101
311 316 317 319 314 342 57 47 50 73 77 68 82 24 92 87 104 108 109 105 105 104 105 96 89 91 95 95 91 88 90 104 108 104 97 108 106 106 73 55 22 6 10
317 322 333 329 331 326 72 74 72 92 99 94 76 83 80 91 98 94 95 93 98 98 105 108 105 91 96 96 88 83 75 78 81 100 115 111 105 54 78 73 49 10 12
311 318 335 330 15 320 83 89 91 94 101 110 112 105 97 96 96 96 91 94 89 81 90 105 106 111 106 103 99 90 79 69 70 87 94 87 87 77 65 74 76 84 117
320 318 337 5 8 10 72 95 97 114 111 107 100 114 105 104 107 105 104 97 97 94 91 92 108 111 122 118 109 102 103 98 95 95 90 85 76 67 64 115 74 120 122
338 331 20 47 34 56 35 93 96 99 100 101 103 102 111 118 121 116 113 116 113 115 109 103 105 115 125 116 114 126 117 115 109 99 86 74 70 66 59 55 57 70 76
24 24 43 53 54 61 72 73 98 99 101 102 104 101 105 108 123 127 130 122 122 118 113 114 105 117 117 122 111 111 122 125 116 107 104 94 79 65 57 53 44 54 79
58 52 43 48 51 64 83 75 88 99 100 98 102 96 88 104 120 128 124 124 127 121 120 113 117 122 117 109 101 110 114 106 101 106 104 92 85 72 64 58 52 61 55
75 65 60 51 47 52 73 82 78 84 91 99 100 103 106 104 112 125 125 118 115 107 115 124 120 114 106 95 100 100 92 97 109 109 106 97 82 71 66 56 54 65 67
84 83 74 62 52 49 56 58 69 69 81 99 103 104 107 98 110 120 114 113 120 120 126 108 113 112 103 94 84 84 89 98 113 116 112 103 96 74 63 42 41 30 54
60 70 74 75 65 58 49 52 78 58 68 105 105 118 126 123 138 133 134 138 139 124 110 96 107 107 113 106 99 99 99 102 103 111 110 107 100 96 64 34 36 19 70
90 72 74 91 97 90 93 85 76 90 99 105 107 114 103 141 152 147 141 139 137 129 93 141 136 132 135 135 127 116 111 119 117 116 108 105 106 110 112 58 343 298 17
96 94 96 96 89 114 114 116 119 44 95 126 138 141 145 155 151 146 141 143 142 128 127 143 140 151 154 148 150 153 147 130 119 106 118 130 153 142 162 127 20 8 354
130 122 138 142 136 122 115 116 104 116 122 66 126 132 154 158 156 153 149 141 134 74 93 141 150 149 147 149 156 153 135 124 122 140 144 152 151 142 120 66 37 5 349
161 167 155 138 128 132 131 121 117 112 129 136 63 87 161 171 165 166 160 125 135 120 124 149 152 151 153 154 151 140 141 152 154 154 163 161 139 111 108 144 238 270 262
178 166 148 137 134 129 134 134 137 142 129 146 138 177 188 150 178 152 126 148 146 156 161 154 147 138 146 151 150 145 141 150 152 154 155 144 132 147 196 236 251 275 238
167 152 155 135 162 170 167 180 172 162 171 182 195 209 193 182 169 164 162 169 163 159 156 149 154 153 150 141 140 151 153 152 157 150 145 157 162 215 209 251 262 247 278
171 172 177 186 165 170 188 171 174 172 174 182 209 228 203 179 162 159 167 163 152 143 146 152 154 153 153 156 154 151 153 161 164 163 165 174 193 221 240 264 281 279 278
173 170 173 176 173 157 167 181 180 184 190 198 191 197 208 183 177 167 153 130 137 148 147 141 138 137 140 143 152 153 158 174 177 162 172 185 194 220 224 256 273 278 268
176 177 181 184 178 185 185 188 193 191 187 190 193 201 197 183 176 158 136 132 138 135 136 132 138 143 141 140 143 145 136 139 158 173 173 183 211 211 233 245 251 253 271
166 177 184 180 182 191 187 196 199 199 201 192 186 182 185 158 135 128 134 138 136 138 134 126 126 138 143 148 157 169 188 196 175 177 181 199 219 223 232 246 263 270 265
169 173 180 171 180 185 193 194 202 183 197 194 186 165 153 145 137 137 140 142 140 135 133 127 134 139 148 159 175 187 194 201 205 199 182 190 217 237 221 245 264 257 267